Location: Recife
(8.0585°S, 34.8848°W)
Time: 04:37:25
(UTC-03:00)

Courier 1B - Pass Details

Date: 18 April 2026
Orbit: 962 x 1209 km, 28.3° (Epoch: 14 May)

Event Time Altitude Azimuth Distance (km) Brightness Sun altitude
Rises 08:23:31 0° 241° (WSW) 4,098 10.3 42.4°
Reaches altitude 10° 08:27:46 10° 220° (SW) 3,148 9.9 43.4°
Maximum altitude 08:32:19 16° 185° (S) 2,706 9.8 44.4°
Drops below altitude 10° 08:36:52 10° 149° (SSE) 3,132 10.3 45.4°
Sets 08:41:05 0° 128° (SE) 4,068 11.0 46.4°
